Year,Month,Day,Hour,Minute,Value (Times are PST for temperature in C)
2018,10,06,00,00,9.00
2018,10,06,00,01,9.00
2018,10,06,00,02,9.00
2018,10,06,00,03,9.00
2018,10,06,00,04,9.00
2018,10,06,00,05,9.00
2018,10,06,00,06,8.90
2018,10,06,00,07,8.90
2018,10,06,00,08,8.90
2018,10,06,00,09,8.90
2018,10,06,00,10,8.90
2018,10,06,00,11,8.90
2018,10,06,00,12,8.90
2018,10,06,00,13,8.90
2018,10,06,00,14,8.90
2018,10,06,00,15,8.90
2018,10,06,00,16,8.90
2018,10,06,00,17,8.90
2018,10,06,00,18,8.80
2018,10,06,00,19,8.80
2018,10,06,00,20,8.80
2018,10,06,00,21,8.80
2018,10,06,00,22,8.80
2018,10,06,00,23,8.80
2018,10,06,00,24,8.80
2018,10,06,00,25,8.80
2018,10,06,00,26,8.80
2018,10,06,00,27,8.80
2018,10,06,00,28,8.80
2018,10,06,00,29,8.80
2018,10,06,00,30,8.80
2018,10,06,00,31,8.80
2018,10,06,00,32,8.70
2018,10,06,00,33,8.70
2018,10,06,00,34,8.70
2018,10,06,00,35,8.70
2018,10,06,00,36,8.70
2018,10,06,00,37,8.70
2018,10,06,00,38,8.60
2018,10,06,00,39,8.60
2018,10,06,00,40,8.60
2018,10,06,00,41,8.50
2018,10,06,00,42,8.50
2018,10,06,00,43,8.40
2018,10,06,00,44,8.40
2018,10,06,00,45,8.40
2018,10,06,00,46,8.30
2018,10,06,00,47,8.30
2018,10,06,00,48,8.30
2018,10,06,00,49,8.20
2018,10,06,00,50,8.20
2018,10,06,00,51,8.20
2018,10,06,00,52,8.10
2018,10,06,00,53,8.10
2018,10,06,00,54,8.00
2018,10,06,00,55,8.00
2018,10,06,00,56,8.00
2018,10,06,00,57,7.90
2018,10,06,00,58,7.90
2018,10,06,00,59,7.90
2018,10,06,01,00,7.80
2018,10,06,01,01,7.80
2018,10,06,01,02,7.80
2018,10,06,01,03,7.80
2018,10,06,01,04,7.80
2018,10,06,01,05,7.70
2018,10,06,01,06,7.70
2018,10,06,01,07,7.70
2018,10,06,01,08,7.70
2018,10,06,01,09,7.70
2018,10,06,01,10,7.70
2018,10,06,01,11,7.70
2018,10,06,01,12,7.70
2018,10,06,01,13,7.70
2018,10,06,01,14,7.70
2018,10,06,01,15,7.70
2018,10,06,01,16,7.70
2018,10,06,01,17,7.70
2018,10,06,01,18,7.70
2018,10,06,01,19,7.70
2018,10,06,01,20,7.70
2018,10,06,01,21,7.80
2018,10,06,01,22,7.80
2018,10,06,01,23,7.80
2018,10,06,01,24,7.80
2018,10,06,01,25,7.80
2018,10,06,01,26,7.80
2018,10,06,01,27,7.80
2018,10,06,01,28,7.80
2018,10,06,01,29,7.80
2018,10,06,01,30,7.80
2018,10,06,01,31,7.90
2018,10,06,01,32,7.90
2018,10,06,01,33,7.90
2018,10,06,01,34,7.90
2018,10,06,01,35,8.00
2018,10,06,01,36,8.00
2018,10,06,01,37,8.00
2018,10,06,01,38,8.00
2018,10,06,01,39,8.10
2018,10,06,01,40,8.10
2018,10,06,01,41,8.10
2018,10,06,01,42,8.10
2018,10,06,01,43,8.10
2018,10,06,01,44,8.20
2018,10,06,01,45,8.20
2018,10,06,01,46,8.20
2018,10,06,01,47,8.20
2018,10,06,01,48,8.20
2018,10,06,01,49,8.20
2018,10,06,01,50,8.20
2018,10,06,01,51,8.20
2018,10,06,01,52,8.20
2018,10,06,01,53,8.20
2018,10,06,01,54,8.20
2018,10,06,01,55,8.20
2018,10,06,01,56,8.20
2018,10,06,01,57,8.20
2018,10,06,01,58,8.20
2018,10,06,01,59,8.20
2018,10,06,02,00,8.20
2018,10,06,02,01,8.20
2018,10,06,02,02,8.20
2018,10,06,02,03,8.20
2018,10,06,02,04,8.20
2018,10,06,02,05,8.20
2018,10,06,02,06,8.10
2018,10,06,02,07,8.10
2018,10,06,02,08,8.10
2018,10,06,02,09,8.00
2018,10,06,02,10,8.00
2018,10,06,02,11,7.90
2018,10,06,02,12,7.90
2018,10,06,02,13,7.80
2018,10,06,02,14,7.80
2018,10,06,02,15,7.70
2018,10,06,02,16,7.70
2018,10,06,02,17,7.70
2018,10,06,02,18,7.70
2018,10,06,02,19,7.70
2018,10,06,02,20,7.70
2018,10,06,02,21,7.70
2018,10,06,02,22,7.70
2018,10,06,02,23,7.60
2018,10,06,02,24,7.60
2018,10,06,02,25,7.60
2018,10,06,02,26,7.60
2018,10,06,02,27,7.50
2018,10,06,02,28,7.50
2018,10,06,02,29,7.40
2018,10,06,02,30,7.40
2018,10,06,02,31,7.40
2018,10,06,02,32,7.40
2018,10,06,02,33,7.30
2018,10,06,02,34,7.30
2018,10,06,02,35,7.30
2018,10,06,02,36,7.30
2018,10,06,02,37,7.30
2018,10,06,02,38,7.20
2018,10,06,02,39,7.20
2018,10,06,02,40,7.20
2018,10,06,02,41,7.20
2018,10,06,02,42,7.20
2018,10,06,02,43,7.20
2018,10,06,02,44,7.20
2018,10,06,02,45,7.10
2018,10,06,02,46,7.10
2018,10,06,02,47,7.10
2018,10,06,02,48,7.10
2018,10,06,02,49,7.10
2018,10,06,02,50,7.10
2018,10,06,02,51,7.10
2018,10,06,02,52,7.10
2018,10,06,02,53,7.10
2018,10,06,02,54,7.10
2018,10,06,02,55,7.10
2018,10,06,02,56,7.00
2018,10,06,02,57,7.00
2018,10,06,02,58,7.00
2018,10,06,02,59,7.10
2018,10,06,03,00,7.10
2018,10,06,03,01,7.10
2018,10,06,03,02,7.10
2018,10,06,03,03,7.10
2018,10,06,03,04,7.10
2018,10,06,03,05,7.00
2018,10,06,03,06,7.00
2018,10,06,03,07,6.90
2018,10,06,03,08,6.90
2018,10,06,03,09,6.90
2018,10,06,03,10,6.80
2018,10,06,03,11,6.80
2018,10,06,03,12,6.80
2018,10,06,03,13,6.80
2018,10,06,03,14,6.80
2018,10,06,03,15,6.70
2018,10,06,03,16,6.70
2018,10,06,03,17,6.70
2018,10,06,03,18,6.70
2018,10,06,03,19,6.70
2018,10,06,03,20,6.70
2018,10,06,03,21,6.60
2018,10,06,03,22,6.60
2018,10,06,03,23,6.60
2018,10,06,03,24,6.50
2018,10,06,03,25,6.50
2018,10,06,03,26,6.50
2018,10,06,03,27,6.50
2018,10,06,03,28,6.40
2018,10,06,03,29,6.40
2018,10,06,03,30,6.40
2018,10,06,03,31,6.40
2018,10,06,03,32,6.40
2018,10,06,03,33,6.40
2018,10,06,03,34,6.40
2018,10,06,03,35,6.30
2018,10,06,03,36,6.30
2018,10,06,03,37,6.30
2018,10,06,03,38,6.30
2018,10,06,03,39,6.30
2018,10,06,03,40,6.20
2018,10,06,03,41,6.20
2018,10,06,03,42,6.20
2018,10,06,03,43,6.20
2018,10,06,03,44,6.20
2018,10,06,03,45,6.20
2018,10,06,03,46,6.20
2018,10,06,03,47,6.20
2018,10,06,03,48,6.20
2018,10,06,03,49,6.20
2018,10,06,03,50,6.20
2018,10,06,03,51,6.20
2018,10,06,03,52,6.20
2018,10,06,03,53,6.20
2018,10,06,03,54,6.10
2018,10,06,03,55,6.10
2018,10,06,03,56,6.10
2018,10,06,03,57,6.10
2018,10,06,03,58,6.10
2018,10,06,03,59,6.00
2018,10,06,04,00,6.00
2018,10,06,04,01,6.00
2018,10,06,04,02,5.90
2018,10,06,04,03,5.90
2018,10,06,04,04,5.90
2018,10,06,04,05,5.90
2018,10,06,04,06,5.90
2018,10,06,04,07,5.90
2018,10,06,04,08,5.90
2018,10,06,04,09,5.80
2018,10,06,04,10,5.80
2018,10,06,04,11,5.80
2018,10,06,04,12,5.80
2018,10,06,04,13,5.80
2018,10,06,04,14,5.80
2018,10,06,04,15,5.80
2018,10,06,04,16,5.80
2018,10,06,04,17,5.80
2018,10,06,04,18,5.80
2018,10,06,04,19,5.80
2018,10,06,04,20,5.80
2018,10,06,04,21,5.80
2018,10,06,04,22,5.80
2018,10,06,04,23,5.80
2018,10,06,04,24,5.80
2018,10,06,04,25,5.80
2018,10,06,04,26,5.80
2018,10,06,04,27,5.80
2018,10,06,04,28,5.80
2018,10,06,04,29,5.80
2018,10,06,04,30,5.80
2018,10,06,04,31,5.80
2018,10,06,04,32,5.80
2018,10,06,04,33,5.80
2018,10,06,04,34,5.90
2018,10,06,04,35,5.90
2018,10,06,04,36,6.00
2018,10,06,04,37,6.00
2018,10,06,04,38,6.10
2018,10,06,04,39,6.10
2018,10,06,04,40,6.10
2018,10,06,04,41,6.20
2018,10,06,04,42,6.20
2018,10,06,04,43,6.20
2018,10,06,04,44,6.20
2018,10,06,04,45,6.10
2018,10,06,04,46,6.10
2018,10,06,04,47,6.10
2018,10,06,04,48,6.10
2018,10,06,04,49,6.10
2018,10,06,04,50,6.10
2018,10,06,04,51,6.10
2018,10,06,04,52,6.10
2018,10,06,04,53,6.10
2018,10,06,04,54,6.00
2018,10,06,04,55,6.00
2018,10,06,04,56,5.90
2018,10,06,04,57,5.90
2018,10,06,04,58,5.90
2018,10,06,04,59,5.90
2018,10,06,05,00,5.80
2018,10,06,05,01,5.80
2018,10,06,05,02,5.80
2018,10,06,05,03,5.70
2018,10,06,05,04,5.70
2018,10,06,05,05,5.70
2018,10,06,05,06,5.70
2018,10,06,05,07,5.80
2018,10,06,05,08,5.80
2018,10,06,05,09,5.70
2018,10,06,05,10,5.70
2018,10,06,05,11,5.70
2018,10,06,05,12,5.70
2018,10,06,05,13,5.60
2018,10,06,05,14,5.60
2018,10,06,05,15,5.60
2018,10,06,05,16,5.60
2018,10,06,05,17,5.50
2018,10,06,05,18,5.50
2018,10,06,05,19,5.50
2018,10,06,05,20,5.40
2018,10,06,05,21,5.40
2018,10,06,05,22,5.40
2018,10,06,05,23,5.40
2018,10,06,05,24,5.40
2018,10,06,05,25,5.40
2018,10,06,05,26,5.40
2018,10,06,05,27,5.40
2018,10,06,05,28,5.40
2018,10,06,05,29,5.40
2018,10,06,05,30,5.40
2018,10,06,05,31,5.40
2018,10,06,05,32,5.30
2018,10,06,05,33,5.30
2018,10,06,05,34,5.30
2018,10,06,05,35,5.30
2018,10,06,05,36,5.30
2018,10,06,05,37,5.30
2018,10,06,05,38,5.30
2018,10,06,05,39,5.30
2018,10,06,05,40,5.30
2018,10,06,05,41,5.30
2018,10,06,05,42,5.30
2018,10,06,05,43,5.30
2018,10,06,05,44,5.30
2018,10,06,05,45,5.30
2018,10,06,05,46,5.30
2018,10,06,05,47,5.30
2018,10,06,05,48,5.30
2018,10,06,05,49,5.30
2018,10,06,05,50,5.30
2018,10,06,05,51,5.30
2018,10,06,05,52,5.30
2018,10,06,05,53,5.20
2018,10,06,05,54,5.20
2018,10,06,05,55,5.20
2018,10,06,05,56,5.20
2018,10,06,05,57,5.30
2018,10,06,05,58,5.30
2018,10,06,05,59,5.30
2018,10,06,06,00,5.30
2018,10,06,06,01,5.30
2018,10,06,06,02,5.40
2018,10,06,06,03,5.40
2018,10,06,06,04,5.50
2018,10,06,06,05,5.60
2018,10,06,06,06,5.60
2018,10,06,06,07,5.70
2018,10,06,06,08,5.70
2018,10,06,06,09,5.70
2018,10,06,06,10,5.80
2018,10,06,06,11,5.80
2018,10,06,06,12,5.70
2018,10,06,06,13,5.70
2018,10,06,06,14,5.70
2018,10,06,06,15,5.60
2018,10,06,06,16,5.60
2018,10,06,06,17,5.50
2018,10,06,06,18,5.50
2018,10,06,06,19,5.50
2018,10,06,06,20,5.50
2018,10,06,06,21,5.40
2018,10,06,06,22,5.40
2018,10,06,06,23,5.40
2018,10,06,06,24,5.30
2018,10,06,06,25,5.30
2018,10,06,06,26,5.30
2018,10,06,06,27,5.30
2018,10,06,06,28,5.30
2018,10,06,06,29,5.30
2018,10,06,06,30,5.30
2018,10,06,06,31,5.30
2018,10,06,06,32,5.20
2018,10,06,06,33,5.20
2018,10,06,06,34,5.20
2018,10,06,06,35,5.30
2018,10,06,06,36,5.20
2018,10,06,06,37,5.20
2018,10,06,06,38,5.20
2018,10,06,06,39,5.20
2018,10,06,06,40,5.20
2018,10,06,06,41,5.20
2018,10,06,06,42,5.20
2018,10,06,06,43,5.20
2018,10,06,06,44,5.20
2018,10,06,06,45,5.20
2018,10,06,06,46,5.10
2018,10,06,06,47,5.10
2018,10,06,06,48,5.10
2018,10,06,06,49,5.10
2018,10,06,06,50,5.10
2018,10,06,06,51,5.10
2018,10,06,06,52,5.10
2018,10,06,06,53,5.10
2018,10,06,06,54,5.10
2018,10,06,06,55,5.10
2018,10,06,06,56,5.10
2018,10,06,06,57,5.10
2018,10,06,06,58,5.10
2018,10,06,06,59,5.00
2018,10,06,07,00,5.00
2018,10,06,07,01,5.00
2018,10,06,07,02,4.90
2018,10,06,07,03,4.90
2018,10,06,07,04,4.90
2018,10,06,07,05,4.90
2018,10,06,07,06,4.90
2018,10,06,07,07,4.90
2018,10,06,07,08,4.90
2018,10,06,07,09,4.90
2018,10,06,07,10,4.90
2018,10,06,07,11,4.90
2018,10,06,07,12,4.90
2018,10,06,07,13,4.90
2018,10,06,07,14,4.90
2018,10,06,07,15,4.90
2018,10,06,07,16,4.90
2018,10,06,07,17,4.90
2018,10,06,07,18,4.90
2018,10,06,07,19,4.90
2018,10,06,07,20,4.90
2018,10,06,07,21,4.90
2018,10,06,07,22,5.00
2018,10,06,07,23,5.00
2018,10,06,07,24,5.00
2018,10,06,07,25,5.00
2018,10,06,07,26,5.00
2018,10,06,07,27,5.10
2018,10,06,07,28,5.10
2018,10,06,07,29,5.10
2018,10,06,07,30,5.10
2018,10,06,07,31,5.10
2018,10,06,07,32,5.10
2018,10,06,07,33,5.10
2018,10,06,07,34,5.10
2018,10,06,07,35,5.10
2018,10,06,07,36,5.10
2018,10,06,07,37,5.10
2018,10,06,07,38,5.10
2018,10,06,07,39,5.10
2018,10,06,07,40,5.00
2018,10,06,07,41,5.00
2018,10,06,07,42,4.90
2018,10,06,07,43,4.90
2018,10,06,07,44,4.90
2018,10,06,07,45,4.90
2018,10,06,07,46,4.90
2018,10,06,07,47,4.90
2018,10,06,07,48,4.80
2018,10,06,07,49,4.80
2018,10,06,07,50,4.80
2018,10,06,07,51,4.80
2018,10,06,07,52,4.80
2018,10,06,07,53,4.80
2018,10,06,07,54,4.90
2018,10,06,07,55,4.90
2018,10,06,07,56,4.90
2018,10,06,07,57,4.90
2018,10,06,07,58,4.90
2018,10,06,07,59,4.90
2018,10,06,08,00,4.90
2018,10,06,08,01,4.90
2018,10,06,08,02,5.00
2018,10,06,08,03,5.00
2018,10,06,08,04,5.00
2018,10,06,08,05,5.10
2018,10,06,08,06,5.10
2018,10,06,08,07,5.20
2018,10,06,08,08,5.20
2018,10,06,08,09,5.30
2018,10,06,08,10,5.30
2018,10,06,08,11,5.30
2018,10,06,08,12,5.40
2018,10,06,08,13,5.40
2018,10,06,08,14,5.50
2018,10,06,08,15,5.50
2018,10,06,08,16,5.60
2018,10,06,08,17,5.60
2018,10,06,08,18,5.60
2018,10,06,08,19,5.70
2018,10,06,08,20,5.70
2018,10,06,08,21,5.80
2018,10,06,08,22,5.90
2018,10,06,08,23,6.00
2018,10,06,08,24,6.10
2018,10,06,08,25,6.10
2018,10,06,08,26,6.20
2018,10,06,08,27,6.30
2018,10,06,08,28,6.30
2018,10,06,08,29,6.40
2018,10,06,08,30,6.40
2018,10,06,08,31,6.50
2018,10,06,08,32,6.50
2018,10,06,08,33,6.60
2018,10,06,08,34,6.60
2018,10,06,08,35,6.70
2018,10,06,08,36,6.80
2018,10,06,08,37,6.90
2018,10,06,08,38,7.00
2018,10,06,08,39,7.10
2018,10,06,08,40,7.20
2018,10,06,08,41,7.20
2018,10,06,08,42,7.30
2018,10,06,08,43,7.30
2018,10,06,08,44,7.40
2018,10,06,08,45,7.40
2018,10,06,08,46,7.50
2018,10,06,08,47,7.50
2018,10,06,08,48,7.60
2018,10,06,08,49,7.70
2018,10,06,08,50,7.80
2018,10,06,08,51,7.90
2018,10,06,08,52,8.00
2018,10,06,08,53,8.10
2018,10,06,08,54,8.20
2018,10,06,08,55,8.20
2018,10,06,08,56,8.30
2018,10,06,08,57,8.30
2018,10,06,08,58,8.40
2018,10,06,08,59,8.40
2018,10,06,09,00,8.40
2018,10,06,09,01,8.50
2018,10,06,09,02,8.50
2018,10,06,09,03,8.60
2018,10,06,09,04,8.60
2018,10,06,09,05,8.60
2018,10,06,09,06,8.70
2018,10,06,09,07,8.70
2018,10,06,09,08,8.80
2018,10,06,09,09,8.90
2018,10,06,09,10,9.00
2018,10,06,09,11,9.10
2018,10,06,09,12,9.20
2018,10,06,09,13,9.30
2018,10,06,09,14,9.40
2018,10,06,09,15,9.50
2018,10,06,09,16,9.60
2018,10,06,09,17,9.70
2018,10,06,09,18,9.80
2018,10,06,09,19,9.90
2018,10,06,09,20,9.90
2018,10,06,09,21,10.00
2018,10,06,09,22,10.00
2018,10,06,09,23,10.10
2018,10,06,09,24,10.10
2018,10,06,09,25,10.10
2018,10,06,09,26,10.20
2018,10,06,09,27,10.20
2018,10,06,09,28,10.20
2018,10,06,09,29,10.20
2018,10,06,09,30,10.30
2018,10,06,09,31,10.30
2018,10,06,09,32,10.40
2018,10,06,09,33,10.40
2018,10,06,09,34,10.50
2018,10,06,09,35,10.60
2018,10,06,09,36,10.70
2018,10,06,09,37,10.70
2018,10,06,09,38,10.80
2018,10,06,09,39,10.80
2018,10,06,09,40,10.90
2018,10,06,09,41,10.90
2018,10,06,09,42,11.00
2018,10,06,09,43,11.10
2018,10,06,09,44,11.20
2018,10,06,09,45,11.20
2018,10,06,09,46,11.30
2018,10,06,09,47,11.30
2018,10,06,09,48,11.40
2018,10,06,09,49,11.40
2018,10,06,09,50,11.40
2018,10,06,09,51,11.40
2018,10,06,09,52,11.50
2018,10,06,09,53,11.50
2018,10,06,09,54,11.60
2018,10,06,09,55,11.70
2018,10,06,09,56,11.70
2018,10,06,09,57,11.80
2018,10,06,09,58,11.80
2018,10,06,09,59,11.80
2018,10,06,10,00,11.80
2018,10,06,10,01,11.80
2018,10,06,10,02,11.80
2018,10,06,10,03,11.80
2018,10,06,10,04,11.90
2018,10,06,10,05,11.90
2018,10,06,10,06,11.90
2018,10,06,10,07,12.00
2018,10,06,10,08,12.00
2018,10,06,10,09,12.10
2018,10,06,10,10,12.10
2018,10,06,10,11,12.10
2018,10,06,10,12,12.10
2018,10,06,10,13,12.10
2018,10,06,10,14,12.10
2018,10,06,10,15,12.10
2018,10,06,10,16,12.20
2018,10,06,10,17,12.10
2018,10,06,10,18,12.10
2018,10,06,10,19,12.10
2018,10,06,10,20,12.10
2018,10,06,10,21,12.10
2018,10,06,10,22,12.10
2018,10,06,10,23,12.10
2018,10,06,10,24,12.10
2018,10,06,10,25,12.10
2018,10,06,10,26,12.10
2018,10,06,10,27,12.10
2018,10,06,10,28,12.10
2018,10,06,10,29,12.10
2018,10,06,10,30,12.10
2018,10,06,10,31,12.20
2018,10,06,10,32,12.20
2018,10,06,10,33,12.20
2018,10,06,10,34,12.30
2018,10,06,10,35,12.30
2018,10,06,10,36,12.40
2018,10,06,10,37,12.40
2018,10,06,10,38,12.50
2018,10,06,10,39,12.50
2018,10,06,10,40,12.60
2018,10,06,10,41,12.60
2018,10,06,10,42,12.60
2018,10,06,10,43,12.60
2018,10,06,10,44,12.60
2018,10,06,10,45,12.60
2018,10,06,10,46,12.60
2018,10,06,10,47,12.60
2018,10,06,10,48,12.70
2018,10,06,10,49,12.70
2018,10,06,10,50,12.70
2018,10,06,10,51,12.70
2018,10,06,10,52,12.80
2018,10,06,10,53,12.80
2018,10,06,10,54,12.80
2018,10,06,10,55,12.80
2018,10,06,10,56,12.80
2018,10,06,10,57,12.80
2018,10,06,10,58,12.80
2018,10,06,10,59,12.80
2018,10,06,11,00,12.80
2018,10,06,11,01,12.70
2018,10,06,11,02,12.70
2018,10,06,11,03,12.70
2018,10,06,11,04,12.70
2018,10,06,11,05,12.70
2018,10,06,11,06,12.70
2018,10,06,11,07,12.70
2018,10,06,11,08,12.70
2018,10,06,11,09,12.70
2018,10,06,11,10,12.70
2018,10,06,11,11,12.80
2018,10,06,11,12,12.80
2018,10,06,11,13,12.80
2018,10,06,11,14,12.90
2018,10,06,11,15,13.00
2018,10,06,11,16,13.00
2018,10,06,11,17,13.10
2018,10,06,11,18,13.10
2018,10,06,11,19,13.10
2018,10,06,11,20,13.10
2018,10,06,11,21,13.20
2018,10,06,11,22,13.20
2018,10,06,11,23,13.20
2018,10,06,11,24,13.20
2018,10,06,11,25,13.30
2018,10,06,11,26,13.30
2018,10,06,11,27,13.30
2018,10,06,11,28,13.20
2018,10,06,11,29,13.20
2018,10,06,11,30,13.20
2018,10,06,11,31,13.20
2018,10,06,11,32,13.20
2018,10,06,11,33,13.20
2018,10,06,11,34,13.20
2018,10,06,11,35,13.20
2018,10,06,11,36,13.30
2018,10,06,11,37,13.30
2018,10,06,11,38,13.40
2018,10,06,11,39,13.40
2018,10,06,11,40,13.30
2018,10,06,11,41,13.30
2018,10,06,11,42,13.30
2018,10,06,11,43,13.30
2018,10,06,11,44,13.30
2018,10,06,11,45,13.30
2018,10,06,11,46,13.40
2018,10,06,11,47,13.40
2018,10,06,11,48,13.50
2018,10,06,11,49,13.60
2018,10,06,11,50,13.60
2018,10,06,11,51,13.60
2018,10,06,11,52,13.60
2018,10,06,11,53,13.60
2018,10,06,11,54,13.60
2018,10,06,11,55,13.60
2018,10,06,11,56,13.50
2018,10,06,11,57,13.50
2018,10,06,11,58,13.40
2018,10,06,11,59,13.40
2018,10,06,12,00,13.40
2018,10,06,12,01,13.30
2018,10,06,12,02,13.30
2018,10,06,12,03,13.30
2018,10,06,12,04,13.20
2018,10,06,12,05,13.30
2018,10,06,12,06,13.30
2018,10,06,12,07,13.30
2018,10,06,12,08,13.30
2018,10,06,12,09,13.40
2018,10,06,12,10,13.40
2018,10,06,12,11,13.40
2018,10,06,12,12,13.30
2018,10,06,12,13,13.30
2018,10,06,12,14,13.20
2018,10,06,12,15,13.20
2018,10,06,12,16,13.20
2018,10,06,12,17,13.10
2018,10,06,12,18,13.10
2018,10,06,12,19,13.00
2018,10,06,12,20,13.00
2018,10,06,12,21,12.90
2018,10,06,12,22,12.90
2018,10,06,12,23,12.90
2018,10,06,12,24,12.90
2018,10,06,12,25,12.90
2018,10,06,12,26,12.90
2018,10,06,12,27,12.90
2018,10,06,12,28,12.90
2018,10,06,12,29,12.90
2018,10,06,12,30,12.90
2018,10,06,12,31,12.90
2018,10,06,12,32,13.00
2018,10,06,12,33,12.90
2018,10,06,12,34,12.90
2018,10,06,12,35,12.90
2018,10,06,12,36,12.90
2018,10,06,12,37,12.90
2018,10,06,12,38,12.90
2018,10,06,12,39,13.00
2018,10,06,12,40,13.00
2018,10,06,12,41,13.00
2018,10,06,12,42,13.10
2018,10,06,12,43,13.10
2018,10,06,12,44,13.10
2018,10,06,12,45,13.20
2018,10,06,12,46,13.20
2018,10,06,12,47,13.20
2018,10,06,12,48,13.20
2018,10,06,12,49,13.20
2018,10,06,12,50,13.20
2018,10,06,12,51,13.20
2018,10,06,12,52,13.20
2018,10,06,12,53,13.30
2018,10,06,12,54,13.30
2018,10,06,12,55,13.30
2018,10,06,12,56,13.30
2018,10,06,12,57,13.30
2018,10,06,12,58,13.30
2018,10,06,12,59,13.30
2018,10,06,13,00,13.30
2018,10,06,13,01,13.30
2018,10,06,13,02,13.30
2018,10,06,13,03,13.30
2018,10,06,13,04,13.30
2018,10,06,13,05,13.30
2018,10,06,13,06,13.30
2018,10,06,13,07,13.40
2018,10,06,13,08,13.50
2018,10,06,13,09,13.50
2018,10,06,13,10,13.60
2018,10,06,13,11,13.50
2018,10,06,13,12,13.60
2018,10,06,13,13,13.60
2018,10,06,13,14,13.60
2018,10,06,13,15,13.60
2018,10,06,13,16,13.60
2018,10,06,13,17,13.60
2018,10,06,13,18,13.60
2018,10,06,13,19,13.60
2018,10,06,13,20,13.60
2018,10,06,13,21,13.60
2018,10,06,13,22,13.60
2018,10,06,13,23,13.70
2018,10,06,13,24,13.70
2018,10,06,13,25,13.70
2018,10,06,13,26,13.70
2018,10,06,13,27,13.80
2018,10,06,13,28,13.80
2018,10,06,13,29,13.80
2018,10,06,13,30,13.90
2018,10,06,13,31,13.90
2018,10,06,13,32,13.90
2018,10,06,13,33,13.90
2018,10,06,13,34,13.90
2018,10,06,13,35,13.90
2018,10,06,13,36,13.90
2018,10,06,13,37,13.90
2018,10,06,13,38,13.90
2018,10,06,13,39,13.90
2018,10,06,13,40,13.90
2018,10,06,13,41,13.90
2018,10,06,13,42,13.90
2018,10,06,13,43,13.90
2018,10,06,13,44,13.90
2018,10,06,13,45,13.90
2018,10,06,13,46,13.90
2018,10,06,13,47,13.90
2018,10,06,13,48,13.90
2018,10,06,13,49,13.90
2018,10,06,13,50,13.90
2018,10,06,13,51,13.90
2018,10,06,13,52,13.90
2018,10,06,13,53,13.90
2018,10,06,13,54,13.90
2018,10,06,13,55,14.00
2018,10,06,13,56,14.00
2018,10,06,13,57,14.00
2018,10,06,13,58,14.00
2018,10,06,13,59,14.00
2018,10,06,14,00,14.10
2018,10,06,14,01,14.10
2018,10,06,14,02,14.10
2018,10,06,14,03,14.10
2018,10,06,14,04,14.20
2018,10,06,14,05,14.20
2018,10,06,14,06,14.20
2018,10,06,14,07,14.30
2018,10,06,14,08,14.30
2018,10,06,14,09,14.30
2018,10,06,14,10,14.30
2018,10,06,14,11,14.30
2018,10,06,14,12,14.30
2018,10,06,14,13,14.30
2018,10,06,14,14,14.40
2018,10,06,14,15,14.40
2018,10,06,14,16,14.40
2018,10,06,14,17,14.40
2018,10,06,14,18,14.40
2018,10,06,14,19,14.40
2018,10,06,14,20,14.40
2018,10,06,14,21,14.30
2018,10,06,14,22,14.30
2018,10,06,14,23,14.30
2018,10,06,14,24,14.30
2018,10,06,14,25,14.30
2018,10,06,14,26,14.30
2018,10,06,14,27,14.30
2018,10,06,14,28,14.40
2018,10,06,14,29,14.40
2018,10,06,14,30,14.40
2018,10,06,14,31,14.50
2018,10,06,14,32,14.50
2018,10,06,14,33,14.60
2018,10,06,14,34,14.60
2018,10,06,14,35,14.60
2018,10,06,14,36,14.60
2018,10,06,14,37,14.60
2018,10,06,14,38,14.60
2018,10,06,14,39,14.50
2018,10,06,14,40,14.40
2018,10,06,14,41,14.40
2018,10,06,14,42,14.30
2018,10,06,14,43,14.30
2018,10,06,14,44,14.20
2018,10,06,14,45,14.20
2018,10,06,14,46,14.20
2018,10,06,14,47,14.20
2018,10,06,14,48,14.10
2018,10,06,14,49,14.10
2018,10,06,14,50,14.10
2018,10,06,14,51,14.10
2018,10,06,14,52,14.20
2018,10,06,14,53,14.20
2018,10,06,14,54,14.20
2018,10,06,14,55,14.20
2018,10,06,14,56,14.20
2018,10,06,14,57,14.20
2018,10,06,14,58,14.20
2018,10,06,14,59,14.20
2018,10,06,15,00,14.20
2018,10,06,15,01,14.20
2018,10,06,15,02,14.20
2018,10,06,15,03,14.20
2018,10,06,15,04,14.20
2018,10,06,15,05,14.20
2018,10,06,15,06,14.20
2018,10,06,15,07,14.20
2018,10,06,15,08,14.20
2018,10,06,15,09,14.30
2018,10,06,15,10,14.30
2018,10,06,15,11,14.40
2018,10,06,15,12,14.50
2018,10,06,15,13,14.50
2018,10,06,15,14,14.60
2018,10,06,15,15,14.60
2018,10,06,15,16,14.60
2018,10,06,15,17,14.60
2018,10,06,15,18,14.60
2018,10,06,15,19,14.60
2018,10,06,15,20,14.60
2018,10,06,15,21,14.60
2018,10,06,15,22,14.60
2018,10,06,15,23,14.60
2018,10,06,15,24,14.70
2018,10,06,15,25,14.70
2018,10,06,15,26,14.80
2018,10,06,15,27,14.80
2018,10,06,15,28,14.80
2018,10,06,15,29,14.80
2018,10,06,15,30,14.80
2018,10,06,15,31,14.80
2018,10,06,15,32,14.80
2018,10,06,15,33,14.80
2018,10,06,15,34,14.80
2018,10,06,15,35,14.80
2018,10,06,15,36,14.80
2018,10,06,15,37,14.80
2018,10,06,15,38,14.90
2018,10,06,15,39,14.90
2018,10,06,15,40,15.00
2018,10,06,15,41,15.00
2018,10,06,15,42,15.00
2018,10,06,15,43,15.10
2018,10,06,15,44,15.10
2018,10,06,15,45,15.10
2018,10,06,15,46,15.10
2018,10,06,15,47,15.20
2018,10,06,15,48,15.20
2018,10,06,15,49,15.20
2018,10,06,15,50,15.20
2018,10,06,15,51,15.20
2018,10,06,15,52,15.20
2018,10,06,15,53,15.20
2018,10,06,15,54,15.20
2018,10,06,15,55,15.20
2018,10,06,15,56,15.20
2018,10,06,15,57,15.20
2018,10,06,15,58,15.20
2018,10,06,15,59,15.20
2018,10,06,16,00,15.20
2018,10,06,16,01,15.20
2018,10,06,16,02,15.20
2018,10,06,16,03,15.20
2018,10,06,16,04,15.20
2018,10,06,16,05,15.20
2018,10,06,16,06,15.10
2018,10,06,16,07,15.10
2018,10,06,16,08,15.00
2018,10,06,16,09,15.00
2018,10,06,16,10,14.90
2018,10,06,16,11,14.90
2018,10,06,16,12,14.80
2018,10,06,16,13,14.80
2018,10,06,16,14,14.80
2018,10,06,16,15,14.70
2018,10,06,16,16,14.70
2018,10,06,16,17,14.70
2018,10,06,16,18,14.60
2018,10,06,16,19,14.60
2018,10,06,16,20,14.60
2018,10,06,16,21,14.60
2018,10,06,16,22,14.60
2018,10,06,16,23,14.60
2018,10,06,16,24,14.50
2018,10,06,16,25,14.50
2018,10,06,16,26,14.50
2018,10,06,16,27,14.50
2018,10,06,16,28,14.40
2018,10,06,16,29,14.40
2018,10,06,16,30,14.40
2018,10,06,16,31,14.40
2018,10,06,16,32,14.40
2018,10,06,16,33,14.30
2018,10,06,16,34,14.30
2018,10,06,16,35,14.30
2018,10,06,16,36,14.30
2018,10,06,16,37,14.30
2018,10,06,16,38,14.30
2018,10,06,16,39,14.30
2018,10,06,16,40,14.30
2018,10,06,16,41,14.30
2018,10,06,16,42,14.30
2018,10,06,16,43,14.30
2018,10,06,16,44,14.30
2018,10,06,16,45,14.20
2018,10,06,16,46,14.20
2018,10,06,16,47,14.20
2018,10,06,16,48,14.10
2018,10,06,16,49,14.10
2018,10,06,16,50,14.00
2018,10,06,16,51,14.00
2018,10,06,16,52,14.00
2018,10,06,16,53,14.00
2018,10,06,16,54,13.90
2018,10,06,16,55,13.90
2018,10,06,16,56,14.00
2018,10,06,16,57,14.00
2018,10,06,16,58,14.00
2018,10,06,16,59,14.00
2018,10,06,17,00,14.00
2018,10,06,17,01,14.00
2018,10,06,17,02,14.00
2018,10,06,17,03,13.90
2018,10,06,17,04,13.90
2018,10,06,17,05,13.90
2018,10,06,17,06,13.90
2018,10,06,17,07,13.90
2018,10,06,17,08,13.90
2018,10,06,17,09,13.90
2018,10,06,17,10,13.90
2018,10,06,17,11,13.90
2018,10,06,17,12,13.90
2018,10,06,17,13,13.90
2018,10,06,17,14,13.90
2018,10,06,17,15,13.90
2018,10,06,17,16,13.90
2018,10,06,17,17,13.90
2018,10,06,17,18,13.90
2018,10,06,17,19,13.90
2018,10,06,17,20,13.80
2018,10,06,17,21,13.80
2018,10,06,17,22,13.80
2018,10,06,17,23,13.80
2018,10,06,17,24,13.80
2018,10,06,17,25,13.70
2018,10,06,17,26,13.70
2018,10,06,17,27,13.70
2018,10,06,17,28,13.70
2018,10,06,17,29,13.60
2018,10,06,17,30,13.60
2018,10,06,17,31,13.60
2018,10,06,17,32,13.50
2018,10,06,17,33,13.50
2018,10,06,17,34,13.50
2018,10,06,17,35,13.40
2018,10,06,17,36,13.40
2018,10,06,17,37,13.40
2018,10,06,17,38,13.40
2018,10,06,17,39,13.40
2018,10,06,17,40,13.30
2018,10,06,17,41,13.30
2018,10,06,17,42,13.30
2018,10,06,17,43,13.30